TimeEDT,TemperatureF,Dew PointF,Humidity,Sea Level PressureIn,VisibilityMPH,Wind Direction,Wind SpeedMPH,Gust SpeedMPH,PrecipitationIn,Events,Conditions,WindDirDegrees,DateUTC
12:53 AM,30.0,21.0,69,30.32,10.0,Calm,Calm,-,N/A,,Clear,0,2013-03-29 04:53:00
1:53 AM,28.9,21.0,72,30.32,10.0,Calm,Calm,-,N/A,,Clear,0,2013-03-29 05:53:00
2:53 AM,27.0,19.9,75,30.32,10.0,Calm,Calm,-,N/A,,Clear,0,2013-03-29 06:53:00
3:53 AM,28.0,19.9,72,30.31,10.0,Calm,Calm,-,N/A,,Clear,0,2013-03-29 07:53:00
4:53 AM,26.1,19.9,78,30.31,10.0,Calm,Calm,-,N/A,,Clear,0,2013-03-29 08:53:00
5:53 AM,25.0,19.9,81,30.30,10.0,Calm,Calm,-,N/A,,Partly Cloudy,0,2013-03-29 09:53:00
6:53 AM,25.0,19.9,81,30.31,10.0,Calm,Calm,-,N/A,,Clear,0,2013-03-29 10:53:00
7:53 AM,24.1,19.0,81,30.32,10.0,Calm,Calm,-,N/A,,Clear,0,2013-03-29 11:53:00
8:53 AM,30.0,25.0,82,30.32,8.0,Calm,Calm,-,N/A,,Clear,0,2013-03-29 12:53:00
9:53 AM,37.0,25.0,62,30.33,10.0,Calm,Calm,-,N/A,,Clear,0,2013-03-29 13:53:00
10:53 AM,43.0,23.0,45,30.33,10.0,North,3.5,-,N/A,,Clear,10,2013-03-29 14:53:00
11:53 AM,46.0,21.0,37,30.33,10.0,NNE,8.1,-,N/A,,Clear,30,2013-03-29 15:53:00
12:53 PM,46.9,19.0,33,30.32,10.0,North,9.2,-,N/A,,Clear,350,2013-03-29 16:53:00
1:53 PM,48.9,19.0,31,30.29,10.0,Variable,3.5,-,N/A,,Clear,0,2013-03-29 17:53:00
2:53 PM,51.1,19.0,28,30.27,10.0,Variable,5.8,-,N/A,,Clear,0,2013-03-29 18:53:00
3:53 PM,52.0,19.0,27,30.25,10.0,WSW,10.4,16.1,0.00,Rain,Light Rain,240,2013-03-29 19:53:00
4:53 PM,52.0,18.0,26,30.24,10.0,West,10.4,23.0,0.00,,Clear,270,2013-03-29 20:53:00
5:53 PM,51.1,16.0,25,30.24,10.0,NNW,10.4,19.6,N/A,,Clear,330,2013-03-29 21:53:00
6:53 PM,48.9,17.1,28,30.25,10.0,WNW,12.7,-,N/A,,Clear,300,2013-03-29 22:53:00
7:53 PM,45.0,18.0,34,30.25,10.0,NNW,8.1,-,N/A,,Clear,340,2013-03-29 23:53:00
8:53 PM,42.1,16.0,35,30.25,10.0,NNW,4.6,-,N/A,,Clear,330,2013-03-30 00:53:00
9:53 PM,37.9,19.0,47,30.26,10.0,Calm,Calm,-,N/A,,Clear,0,2013-03-30 01:53:00
10:53 PM,36.0,19.9,52,30.27,10.0,Calm,Calm,-,N/A,,Clear,0,2013-03-30 02:53:00
11:53 PM,32.0,19.0,59,30.26,10.0,Calm,Calm,-,N/A,,Clear,0,2013-03-30 03:53:00